This demonstration page uses our WeatherBlox Daily Observations layout. Learn more.

Left ArrowRight Arrow

44.8408, -93.29828

Hourly Observations for April 25, 2019

Temp ( °F °C ) Dew Point ( °F °C ) Humidity (%) Winds ( mph kmh ) Pressure ( in mb ) Visibility ( mi km ) Precip ( " mm )
12:53 am 00:53 Cloudy 63 17.2 44 6.7 50 50 W 6 9 29.72 1006 10 16 0.00 0.00
1:53 am 01:53 Cloudy 62 16.7 47 8.3 58 58 W 6 9 29.72 1006 10 16 0.00 0.00
2:53 am 02:53 Cloudy 60 15.6 48 8.9 65 65 Calm 29.71 1006 10 16 0.00 0.00
3:53 am 03:53 Cloudy 60 15.6 47 8.3 62 62 Calm 29.73 1007 10 16 0.00 0.00
4:53 am 04:53 Cloudy 57 13.9 46 7.8 67 67 NW 6 9 29.74 1007 10 16 0.00 0.00
5:53 am 05:53 Cloudy 57 13.9 44 6.7 62 62 NW 5 7 29.76 1008 10 16 0.00 0.00
6:53 am 06:53 Cloudy 58 14.4 38 3.3 48 48 VRB 7 11 29.78 1009 10 16 0.00 0.00
7:53 am 07:53 Cloudy 58 14.4 37 2.8 46 46 NNW 7 11 29.80 1009 10 16 0.00 0.00
8:53 am 08:53 Cloudy 58 14.4 37 2.8 46 46 N 3 6 29.81 1010 10 16 0.00 0.00
9:53 am 09:53 Cloudy 58 14.4 38 3.3 48 48 NW 5 7 29.83 1010 10 16 0.00 0.00
10:53 am 10:53 Cloudy 60 15.6 37 2.8 42 42 N 9 15 29.83 1010 10 16 0.00 0.00
11:53 am 11:53 Mostly Cloudy 63 17.2 36 2.2 37 37 NNW 8 13 29.84 1010 10 16 0.00 0.00
12:53 pm 12:53 Mostly Cloudy 65 18.3 37 2.8 36 36 NW 13 20 29.83 1010 10 16 0.00 0.00
1:53 pm 13:53 Partly Cloudy 68 20 32 0 26 26 NW 13 20 29.82 1010 10 16 0.00 0.00
2:53 pm 14:53 Mostly Sunny 70 21.1 26 -3.3 19 19 N 12 19 29.81 1010 10 16 0.00 0.00
3:53 pm 15:53 Mostly Sunny 71 21.7 24 -4.4 17 17 NW 16 26 29.81 1009 10 16 0.00 0.00
4:53 pm 16:53 Mostly Sunny 71 21.7 24 -4.4 17 17 NNW 17 28 29.80 1009 10 16 0.00 0.00
5:53 pm 17:53 Mostly Sunny 70 21.1 23 -5 17 17 NW 20 31 29.80 1009 10 16 0.00 0.00
6:53 pm 18:53 Partly Cloudy 68 20 25 -3.9 20 20 NW 23 37 29.81 1010 10 16 0.00 0.00
7:53 pm 19:53 Partly Cloudy 64 17.8 27 -2.8 25 25 NW 22 35 29.83 1010 10 16 0.00 0.00
8:53 pm 20:53 Partly Cloudy 62 16.7 28 -2.2 28 28 NW 16 26 29.86 1011 10 16 0.00 0.00
9:53 pm 21:53 Mostly Clear 60 15.6 29 -1.7 31 31 NW 16 26 29.89 1012 10 16 0.00 0.00
10:53 pm 22:53 Mostly Clear 56 13.3 22 -5.6 27 27 NW 22 35 29.93 1013 10 16 0.00 0.00
11:53 pm 23:53 Clear 53 11.7 18 -7.8 25 25 NW 16 26 29.94 1014 10 16 0.00 0.00

Powered by AerisWeather